User: anonymous   Login
Location: Melbourne
(37.8170°S, 144.9670°E)
Time: 14:19:37
(UTC+10:00)
Language:

CZ-3 R/B - Orbit

View from above orbital plane
View from above orbital plane
View from above satellite
View from above satellite

Ground track
Ground track

The orbit data is extracted from the following two-line orbital elements,

1 29517U 06048B   16243.39073056  .00035496  00000-0  80001-3 0  9990
2 29517  28.4604 255.8530 4462314 222.6952  92.4256  6.67990356147887
Epoch (UTC): 30 August 2016 09:22:39
Eccentricity: 0.4462314
inclination: 28.4604°
perigee height: 217 km
apogee height: 10845 km
right ascension of ascending node: 255.8530°
argument of perigee: 222.6952°
revolutions per day: 6.67990356
mean anomaly at epoch: 92.4256°
orbit number at epoch: 14788

The dashed part of the orbit path shows where the satellite is in the earth's shadow,  

DLR